Home > Weather > Honiara > Past weeks

Flag for Solomon Islands Weather for the Past 2 Weeks in Honiara, Solomon Islands

Now
84 °F

Cloudy.


Feels Like: 98 °F
Forecast: 79 / 88 °F
Wind: 12 mph from Northwest

Location: Honiara / Henderson

Current Time: Feb 14, 2016 at 1:50:18 PM

Latest Report: Feb 14, 2016 at 1:00 PM


Visibility: N/A

Pressure: 29.71 "Hg

Humidity: 89%

Dew point: 81 °F

Location of HoniaraLocation

Historic Weather in Honiara — Graph

°F

Honiara Temperature Yesterday

Maximum temperature yesterday: 86 °F (at 12:00 PM)
Minimum temperature yesterday: 77 °F (at 12:00 AM)
Average temperature yesterday: 80 °F

High & Low Weather Summary for the Past Weeks

 TemperatureHumidityPressure
High91 °F (Jan 31, 11:00 AM)100% (Feb 1, 12:00 AM)29.86 "Hg (Feb 1, 12:00 AM)
Low75 °F (Feb 2, 2:00 AM)63% (Jan 30, 2:00 PM)29.62 "Hg (Feb 5, 3:00 PM)
Average81 °F88%29.73 "Hg
* Reported Jan 30 12:00 Noon — Feb 14 12:00 Noon, Honiara, Weather by CustomWeather, © 2016

Note: Actual official high and low records may vary slightly from our data, if they occured in-between our weather recording intervals... More about our weather records

Advertising

Honiara Weather History for the Previous 24 Hours

 ConditionsComfort  
Time TempWeatherWind HumidityBarometerVisibility
12:00 PM
Sun, Feb 14
81 °FBroken clouds.14 mph94%29.74 "HgN/A
11:00 AM82 °FWarm.N/A89%29.77 "HgN/A
10:00 AM79 °FHeavy rain. More clouds than sun.12 mph100%29.80 "Hg1 mi
9:00 AM79 °FBroken clouds.3 mph94%29.77 "HgN/A
8:00 AM79 °FMore clouds than sun.2 mph94%29.77 "HgN/A
7:00 AM79 °FDrizzle. Partly sunny.9 mph94%29.74 "HgN/A
6:00 AM77 °FSprinkles. Overcast.3 mph100%29.74 "HgN/A
5:00 AM77 °FPartly cloudy.5 mph100%29.71 "HgN/A
4:00 AM79 °FSprinkles. Overcast.7 mph94%29.68 "HgN/A
3:00 AM79 °FSprinkles. Partly cloudy.3 mph94%29.68 "HgN/A
2:00 AM79 °FPassing clouds.3 mph94%29.71 "HgN/A
1:00 AM79 °FMostly cloudy.3 mph94%29.71 "HgN/A
12:00 AM79 °FMostly cloudy.3 mph94%29.74 "HgN/A
11:00 PM
Sat, Feb 13
79 °FMostly cloudy.7 mph94%29.77 "HgN/A
10:00 PM79 °FMostly cloudy.3 mph94%29.77 "HgN/A
9:00 PM79 °FMostly cloudy.7 mph100%29.77 "HgN/A
8:00 PM79 °FSprinkles. Overcast.7 mph94%29.77 "HgN/A
7:00 PM81 °FDrizzle. Overcast.9 mph94%29.74 "HgN/A
6:00 PM82 °FOvercast.5 mph89%29.68 "HgN/A
5:00 PM82 °FOvercast.7 mph89%29.68 "HgN/A
4:00 PM84 °FMore clouds than sun.8 mph84%29.68 "HgN/A
3:00 PM84 °FMore clouds than sun.12 mph84%29.68 "HgN/A
2:00 PM81 °FSprinkles. More clouds than sun.13 mph89%29.68 "HgN/A
1:00 PM84 °FBroken clouds.10 mph84%29.68 "HgN/A
Weather by CustomWeather, © 2016

See weather overviewHow to use our weather pages